Home   Weather   Columbus Park   Past weeks
Flag for USA

Past Weather in Columbus Park, Iowa, USA — Yesterday and Last 2 Weeks

Now
76 °F

Light rain. Mostly cloudy.


Feels Like: 78 °F
Forecast: 80 / 68 °F
Wind: 10 mph from Northeast

Location: Des Moines International Airport

Current Time: Jul 21, 2019 at 6:33:58 pm

Latest Report: Jul 21, 2019 at 5:54 pm


Visibility: 10 mi

Pressure: 30.01 "Hg

Humidity: 64%

Dew Point: 63 °F

Location of Columbus ParkLocation

Past Weather in Columbus Park — Graph

°F

Columbus Park Temperature Yesterday

Maximum temperature yesterday: 91 °F (at 12:54 pm)
Minimum temperature yesterday: 68 °F (at 5:36 pm)
Average temperature yesterday: 79 °F

High & Low Weather Summary for the Past Weeks

 TemperatureHumidityPressure
High96 °F (Jul 19, 4:54 pm)93% (Jul 17, 12:05 pm)30.09 "Hg (Jul 17, 12:05 pm)
Low65 °F (Jul 12, 2:54 am)38% (Jul 14, 3:54 pm)29.62 "Hg (Jul 18, 6:54 pm)
Average79 °F68%29.90 "Hg
* Reported Jul 6 4:54 pm — Jul 21 4:54 pm, Columbus Park. Weather by CustomWeather, © 2019

Note: Actual official high and low records may vary slightly from our data, if they occured in-between our weather recording intervals... More about our weather records

Advertising

Columbus Park Weather History for the Previous 24 Hours

Scroll right to see more
 ConditionsComfort  
Time TempWeatherWind HumidityBarometerVisibility
4:54 pm
Sun, Jul 21
76 °FCloudy.9 mph72%30.00 "Hg10 mi
3:54 pm76 °FMore clouds than sun.7 mph74%29.99 "Hg10 mi
2:54 pm76 °FMostly cloudy.8 mph72%29.98 "Hg10 mi
1:54 pm74 °FMostly cloudy.7 mph76%29.97 "Hg10 mi
12:54 pm74 °FMostly cloudy.9 mph79%29.97 "Hg10 mi
11:54 am74 °FMostly cloudy.7 mph79%29.99 "Hg10 mi
11:25 am73 °FMore clouds than sun.6 mph79%30.01 "Hg10 mi
11:13 am72 °FMostly cloudy.3 mph81%30.02 "Hg10 mi
10:54 am72 °FMostly cloudy.6 mph81%30.00 "Hg10 mi
9:54 am70 °FMostly cloudy.7 mph84%29.99 "Hg10 mi
8:54 am69 °FMostly cloudy.7 mph87%30.00 "Hg10 mi
7:54 am69 °FMostly cloudy.9 mph84%29.98 "Hg10 mi
7:32 am69 °FCloudy.5 mph87%29.99 "Hg10 mi
6:54 am68 °FPartly sunny.3 mph87%29.96 "Hg10 mi
5:54 am69 °FPassing clouds.5 mph87%29.93 "Hg10 mi
4:54 am69 °FOvercast.7 mph87%29.90 "Hg10 mi
3:54 am69 °FMostly cloudy.8 mph90%29.92 "Hg10 mi
2:54 am70 °FOvercast.8 mph87%29.94 "Hg10 mi
2:19 am70 °FLow clouds.No wind88%29.98 "Hg10 mi
2:06 am70 °FLow clouds.8 mph87%29.99 "Hg10 mi
1:54 am70 °FOvercast.5 mph87%29.94 "Hg10 mi
1:00 am71 °FThunderstorms. Mostly cloudy.5 mph87%29.91 "Hg10 mi
11:54 pm
Sat, Jul 20
71 °FMostly cloudy.9 mph90%29.88 "Hg10 mi
11:14 pm72 °FMostly cloudy.13 mph87%29.91 "Hg10 mi
10:54 pm72 °FMostly cloudy.9 mph91%29.88 "Hg10 mi
9:54 pm71 °FMostly cloudy.6 mph90%29.87 "Hg10 mi
8:54 pm71 °FPartly cloudy.No wind90%29.84 "Hg10 mi
8:09 pm70 °FBroken clouds.8 mph90%29.82 "Hg10 mi
7:54 pm70 °FThunderstorms. Broken clouds.13 mph90%29.79 "Hg10 mi
6:54 pm71 °FLow clouds.5 mph87%29.86 "Hg10 mi
Weather by CustomWeather, © 2019

See weather overview